Weather History for McMinnville, OR

Change the Weather History Date:

Wednesday, May 13, 2009

  Actual Average Record
Temperature  
Mean Temperature 45 °F 55 °F  
Max Temperature 53 °F 67 °F 93 °F (1939)
Min Temperature 36 °F 43 °F 30 °F (1958)
Degree Days  
Heating Degree Days 20 10  
Month to date heating degree days 176 145  
Since 1 July heating degree days 4774 4543  
Cooling Degree Days 0 0  
Month to date cooling degree days 0 0  
Year to date cooling degree days 0 0  
Moisture  
Dew Point 44 °F    
Average Humidity 91    
Maximum Humidity 100    
Minimum Humidity 82    
Precipitation  
Precipitation 0.33 in 0.07 in 1.19 in (1978)
Month to date precipitation 1.89 0.93  
Year to date precipitation 7.80 18.41  
Snow  
Snow 0.00 in - - ()
Month to date snowfall 0.0  
Snow Depth 0.00 in    
Sea Level Pressure  
Sea Level Pressure 30.04 in    
Wind  
Wind Speed 8 mph (South)    
Max Wind Speed 23 mph    
Max Gust Speed 30 mph    
Visibility 8 miles    
Events Rain    
T = Trace of Precipitation, MM = Missing Value Source: NWS Daily Summary

Daily Weather History Graph

Daily Weather History Graph

Search for Another Location

Airport:

Trip Planner

Search our weather history database for the weather conditions in past years. The results will help you decide how hot, cold, wet, or windy it might be!

Date:

Astronomy

May. 13, 2009 Rise Set
Actual Time 5:44 AM PDT 8:33 PM PDT
Civil Twilight 5:10 AM PDT 9:07 PM PDT
Nautical Twilight 4:27 AM PDT 9:51 PM PDT
Astronomical Twilight 3:36 AM PDT 10:42 PM PDT
Moon 12:20 AM PDT (5/13) 8:55 AM PDT (5/13)
Length of Visible Light 15h 57m
Length of Day
14h 48m
Waning Gibbous, 81% of the Moon is Illuminated
May 13
Waning Gibbous
May 17
Last Quarter
May 24
New
May 30
First Quarter
Jun 7
Full

Hourly Weather History & Observations

Time (PDT) Temp. Windchill Dew Point Humidity Pressure Visibility Wind Dir Wind Speed Gust Speed Precip Events Conditions
12:53 AM 39.0 °F - 37.0 °F 93% 30.28 in 10.0 mi Calm Calm - N/A   Clear
1:53 AM 39.0 °F - 37.0 °F 93% 30.26 in 10.0 mi Calm Calm - N/A   Clear
2:53 AM 37.0 °F - 36.0 °F 96% 30.25 in 10.0 mi Calm Calm - N/A   Clear
3:53 AM 39.0 °F 36.8 °F 37.0 °F 93% 30.24 in 10.0 mi NW 3.5 mph - N/A   Clear
4:53 AM 39.0 °F - 37.9 °F 96% 30.22 in 10.0 mi Calm Calm - N/A   Clear
5:53 AM 39.0 °F - 36.0 °F 89% 30.18 in 10.0 mi Calm Calm - N/A   Partly Cloudy
6:53 AM 39.9 °F 37.8 °F 37.9 °F 93% 30.17 in 10.0 mi North 3.5 mph - N/A   Clear
7:53 AM 43.0 °F - 39.0 °F 86% 30.16 in 10.0 mi Calm Calm - N/A   Partly Cloudy
8:53 AM 43.0 °F - 39.9 °F 89% 30.15 in 10.0 mi Calm Calm - N/A   Scattered Clouds
9:53 AM 45.0 °F - 41.0 °F 86% 30.12 in 10.0 mi Calm Calm - N/A   Clear
10:53 AM 46.0 °F - 41.0 °F 83% 30.12 in 10.0 mi Calm Calm - N/A   Scattered Clouds
11:21 AM 46.4 °F - 42.8 °F 87% 30.10 in 9.0 mi Calm Calm - 0.00 in Rain Light Rain
11:53 AM 46.0 °F - 43.0 °F 89% 30.10 in 7.0 mi Calm Calm - 0.00 in Rain Light Rain
12:32 PM 46.4 °F 45.2 °F 44.6 °F 93% 30.09 in 6.0 mi SSW 3.5 mph - 0.00 in Rain Light Rain
12:53 PM 46.9 °F - 44.1 °F 90% 30.08 in 5.0 mi SE 3.5 mph - 0.00 in Rain Light Rain
1:53 PM 46.9 °F - 44.1 °F 90% 30.05 in 5.0 mi SSE 8.1 mph - 0.02 in Rain Rain
2:53 PM 48.0 °F - 45.0 °F 89% 30.03 in 5.0 mi South 9.2 mph - 0.06 in Rain Light Rain
3:03 PM 48.2 °F - 44.6 °F 87% 30.02 in 5.0 mi SSE 10.4 mph - 0.01 in Rain Rain
3:53 PM 50.0 °F - 46.0 °F 86% 29.99 in 7.0 mi South 13.8 mph - 0.05 in Rain Light Rain
4:11 PM 50.0 °F - 46.4 °F 87% 29.96 in 8.0 mi SSE 17.3 mph 23.0 mph 0.00 in Rain Light Rain
4:33 PM 50.0 °F - 46.4 °F 87% 29.95 in 10.0 mi South 15.0 mph 23.0 mph 0.00 in Rain Light Rain
4:53 PM 50.0 °F - 46.9 °F 89% 29.95 in 7.0 mi South 13.8 mph 19.6 mph 0.01 in Rain Light Rain
5:53 PM 51.1 °F - 48.9 °F 92% 29.93 in 4.0 mi South 11.5 mph - 0.07 in Rain Light Rain
6:37 PM 51.8 °F - 48.2 °F 88% 29.90 in 4.0 mi South 13.8 mph - 0.05 in Rain Rain
6:53 PM 51.1 °F - 50.0 °F 96% 29.89 in 4.0 mi South 11.5 mph - 0.07 in Rain Rain
7:13 PM 51.8 °F - 48.2 °F 88% 29.88 in 7.0 mi South 16.1 mph - 0.03 in Rain Light Rain
7:53 PM 51.1 °F - 48.9 °F 92% 29.87 in 7.0 mi South 17.3 mph - 0.05 in Rain Light Rain
8:53 PM 51.1 °F - 48.9 °F 92% 29.86 in 10.0 mi South 19.6 mph 24.2 mph 0.00 in   Overcast
9:53 PM 52.0 °F - 48.9 °F 89% 29.85 in 10.0 mi South 21.9 mph 29.9 mph 0.00 in Rain Light Rain
10:53 PM 52.0 °F - 50.0 °F 93% 29.86 in 10.0 mi South 17.3 mph 24.2 mph 0.00 in Rain Light Rain
11:53 PM 52.0 °F - 51.1 °F 97% 29.86 in 10.0 mi South 15.0 mph - 0.00 in Rain Light Rain